Home   Weather   Lódz   Past weeks

Flag for Poland Past Weather in Lódz, Poland — Yesterday and Last 2 Weeks

Now
40 °F

Partly sunny.


Feels Like: 36 °F
Forecast: 34 / 51 °F
Wind: 6 mph from West

Location: Lodz

Current Time: Apr 23, 2017 at 10:20:21 am

Latest Report: Apr 23, 2017 at 9:00 am


Visibility: 13 mi

Pressure: 29.97 "Hg

Humidity: 77%

Dew Point: 33 °F

Location of LódzLocation

Past Weather in Lódz — Graph

°F

Lódz Temperature Yesterday

Maximum temperature yesterday: 49 °F (at 12:00 am)
Minimum temperature yesterday: 35 °F (at 11:00 pm)
Average temperature yesterday: 44 °F

High & Low Weather Summary for the Past Weeks

 TemperatureHumidityPressure
High70 °F (Apr 10, 5:00 pm)100% (Apr 9, 7:00 am)30.47 "Hg (Apr 9, 7:00 am)
Low25 °F (Apr 21, 3:00 am)39% (Apr 10, 5:00 pm)29.65 "Hg (Apr 13, 4:00 am)
Average43 °F73%30.04 "Hg
* Reported Apr 8 8:00 am — Apr 23 8:00 am, Lódz, Weather by CustomWeather, © 2017

Note: Actual official high and low records may vary slightly from our data, if they occured in-between our weather recording intervals... More about our weather records

Advertising

Lódz Weather History for the Previous 24 Hours

Scroll right to see more
 ConditionsComfort  
Time TempWeatherWind HumidityBarometerVisibility
8:00 am
Sun, Apr 23
38 °FOvercast.6 mph81%29.96 "Hg12 mi
7:00 am37 °FOvercast.7 mph85%29.94 "Hg12 mi
6:00 am37 °FOvercast.7 mph87%29.92 "Hg12 mi
5:00 am37 °FPassing clouds.6 mph88%29.91 "Hg12 mi
4:00 am37 °FLow clouds.5 mph89%29.90 "Hg12 mi
3:00 am37 °FOvercast.6 mph89%29.90 "Hg12 mi
2:00 am37 °FPassing clouds.7 mph87%29.91 "Hg12 mi
1:00 am37 °FPassing clouds.6 mph84%29.92 "Hg12 mi
12:00 am35 °FPassing clouds.3 mph87%29.92 "Hg12 mi
11:00 pm
Sat, Apr 22
35 °FClear.3 mph87%29.93 "Hg12 mi
10:00 pm38 °FPassing clouds.6 mph82%29.93 "Hg12 mi
9:00 pm40 °FPassing clouds.6 mph71%29.93 "Hg12 mi
8:00 pm42 °FOvercast.5 mph66%29.92 "Hg12 mi
7:00 pm42 °FOvercast.6 mph65%29.91 "Hg12 mi
6:00 pm44 °FOvercast.8 mph57%29.91 "Hg12 mi
5:00 pm45 °FOvercast.7 mph54%29.91 "Hg12 mi
4:00 pm44 °FOvercast.7 mph56%29.92 "Hg12 mi
3:00 pm44 °FOvercast.8 mph56%29.93 "Hg12 mi
2:00 pm44 °FSprinkles. Overcast.8 mph58%29.93 "Hg12 mi
1:00 pm44 °FOvercast.9 mph54%29.94 "Hg12 mi
12:00 pm44 °FOvercast.8 mph58%29.94 "Hg12 mi
11:00 am45 °FOvercast.7 mph54%29.94 "Hg12 mi
10:00 am44 °FOvercast.10 mph57%29.94 "Hg12 mi
Weather by CustomWeather, © 2017

See weather overviewHow to use our weather pages